Theta_e
283 283 283 283 282 282 281 280 281 281 282 282 282 281 281 280 279 279 279 280 280 281 281 282 281 281 281 282 283 283 283 285
282 282 282 281 281 281 281 281 281 281 281 281 281 282 281 280 280 280 279 279 280 280 280 280 280 280 280 280 280 281 282 282
281 281 281 281 281 281 281 281 281 281 281 280 281 280 279 280 280 279 280 281 279 279 279 279 279 280 279 279 279 279 280 281
281 280 280 279 280 279 280 281 281 281 280 279 279 278 278 279 279 279 279 279 279 279 278 278 278 278 279 279 279 280 280 281
279 278 279 278 279 279 279 279 280 279 279 278 278 278 277 278 277 277 278 277 278 278 278 278 278 278 278 278 278 279 280 281
279 278 278 278 279 280 280 280 280 279 278 278 278 278 277 277 277 277 278 277 277 277 277 277 277 278 277 278 278 278 278 279
279 279 279 278 279 279 279 279 279 277 276 277 276 276 276 276 276 276 275 274 274 274 274 274 276 279 280 280 278 278 277 277
278 279 279 278 279 278 278 277 275 274 273 273 274 273 274 273 272 272 271 271 271 271 271 271 272 276 277 278 276 276 276 276
278 278 278 278 277 277 276 275 274 272 270 271 272 270 270 270 269 269 269 268 268 268 268 268 269 273 274 274 272 272 272 273
278 278 277 276 275 275 274 274 273 272 272 270 269 266 267 265 266 266 266 265 265 266 265 265 265 270 271 272 270 270 270 271
279 277 275 274 274 273 272 270 269 270 270 269 267 263 264 264 264 264 263 264 265 264 264 264 263 267 270 271 268 267 268 270
277 275 274 273 272 270 269 268 268 268 267 265 265 263 263 262 263 262 261 262 261 261 262 262 263 264 269 271 269 268 267 267
274 273 272 271 269 268 267 268 265 264 263 262 260 261 262 259 260 260 259 259 259 260 261 262 264 266 268 271 272 272 269 268
272 271 270 268 267 265 265 264 263 258 256 256 258 260 261 259 259 258 259 258 259 259 259 261 263 264 269 271 272 272 269 269
267 266 266 266 267 263 262 262 254 251 256 259 258 259 259 260 260 259 258 258 259 259 260 262 264 266 268 268 268 271 271 271
266 266 265 265 264 261 261 257 255 255 258 258 258 257 259 260 259 260 262 263 263 264 266 265 265 267 272 273 271 272 273 274
264 263 262 261 261 260 256 253 252 256 258 258 259 259 259 259 259 264 267 268 270 271 270 268 271 273 274 274 275 276 276 273
263 262 260 259 259 255 254 252 251 252 257 257 258 258 257 258 257 257 261 266 267 268 270 270 271 272 272 273 274 273 272 267
260 259 256 256 256 255 251 249 249 250 255 255 256 256 257 257 258 258 257 257 259 264 267 268 269 270 272 271 269 261 263 263
254 256 256 255 256 254 251 251 249 252 254 253 256 257 257 257 257 257 258 258 258 260 262 263 267 269 267 267 260 260 260 261
Wind_Speed
6 6 4 5 5 5 5 6 5 5 5 5 5 6 6 6 7 7 6 7 8 8 9 10 9 8 8 7 7 6 5 5
6 6 6 6 5 5 4 4 4 4 4 5 5 6 6 6 6 6 6 6 8 9 8 9 9 8 6 7 8 9 9 7
7 7 7 7 5 5 5 4 3 2 2 2 2 3 4 5 6 6 8 7 6 8 9 9 10 9 8 10 8 9 11 12
6 7 7 6 6 6 5 6 5 4 3 2 3 3 4 5 6 6 7 7 9 9 9 11 12 12 12 11 12 11 11 11
7 7 7 7 7 7 6 6 6 5 2 2 3 3 4 4 5 5 6 7 8 8 10 11 12 12 12 12 12 13 13 13
9 7 7 7 7 6 5 2 0 2 4 5 5 5 5 6 7 7 9 10 11 12 12 12 12 10 12 13 14 14 16 16
8 7 8 9 7 5 4 2 3 4 4 4 6 8 8 8 9 11 13 13 14 14 15 16 12 22 26 22 15 16 16 17
9 10 9 7 5 5 4 4 4 3 4 5 5 5 7 9 12 13 14 14 14 15 15 17 17 27 29 29 17 17 17 18
6 6 6 5 5 6 5 3 3 2 2 3 4 5 8 10 11 12 12 13 14 14 15 16 14 28 30 30 19 17 19 19
7 5 5 6 6 5 3 3 2 1 2 2 2 4 8 9 11 11 12 13 13 14 15 15 15 26 28 25 16 16 18 17
7 5 7 5 5 4 4 2 2 2 3 4 5 4 8 10 11 11 10 14 12 14 14 16 16 24 27 23 12 15 13 15
7 7 7 6 5 4 4 3 3 1 3 3 6 7 9 10 9 11 12 13 12 14 13 15 15 17 26 26 15 12 13 13
7 7 6 5 5 4 3 3 1 1 3 4 6 7 8 9 10 11 11 11 11 12 12 11 13 20 23 27 28 26 16 15
7 7 5 4 4 4 2 0 1 1 4 6 7 7 8 8 11 9 9 8 9 10 11 12 12 12 26 29 30 30 20 15
7 6 5 4 3 2 1 1 0 3 5 6 6 6 6 6 8 8 8 8 9 12 12 12 11 10 10 12 14 23 21 25
7 6 6 5 3 2 3 1 2 4 5 6 5 5 7 7 8 8 10 11 12 12 12 13 12 12 24 23 15 14 17 21
5 5 5 4 2 2 3 2 3 4 4 5 5 6 6 7 9 18 21 23 26 28 21 12 25 31 32 32 32 33 33 15
5 4 3 2 3 3 3 3 4 4 5 5 5 6 6 7 8 10 17 24 22 22 24 27 27 29 30 31 31 30 26 11
4 2 2 2 5 4 4 3 4 4 7 5 5 6 6 7 8 8 8 11 16 18 21 23 26 28 29 27 21 12 12 9
3 2 2 3 6 3 3 4 4 3 4 4 4 6 7 7 7 8 8 9 11 12 15 16 26 24 22 23 8 10 11 11
Wind_Direction
154 142 129 119 112 96 90 84 69 60 44 40 26 22 15 14 12 6 352 347 345 344 339 334 338 342 348 339 328 322 308 292
159 153 149 150 154 146 123 114 100 82 57 43 24 12 1 5 354 344 335 334 330 327 331 325 317 321 332 323 318 321 307 295
167 170 172 170 165 172 179 173 177 160 112 48 21 2 349 342 337 337 325 325 306 312 322 318 311 312 314 308 301 299 305 305
172 182 182 183 181 180 184 192 196 184 193 249 280 308 305 308 309 310 305 302 304 305 304 308 308 308 310 306 301 294 284 283
184 190 190 191 193 194 197 194 190 186 197 319 331 312 300 299 297 285 282 286 294 293 298 296 294 295 300 296 295 293 292 288
194 197 201 205 212 208 214 210 123 16 13 355 336 330 332 340 330 322 320 315 310 307 302 297 293 295 300 300 301 299 293 290
212 203 209 214 214 202 185 118 71 56 14 350 354 352 345 339 334 324 317 315 313 309 307 304 300 305 305 301 291 286 284 284
211 212 219 215 191 169 125 95 68 41 3 360 354 350 343 331 323 318 315 313 309 307 307 303 306 310 307 306 299 295 288 285
223 230 219 158 122 122 115 110 98 64 340 1 17 336 321 316 310 308 307 306 306 305 305 300 303 309 309 305 297 292 289 287
214 190 148 137 130 121 113 98 45 354 80 76 323 295 307 301 301 302 302 301 300 298 302 301 299 303 302 303 296 287 286 286
184 141 131 135 125 129 137 149 223 96 345 328 313 296 300 296 297 295 291 293 298 295 295 294 294 297 299 299 289 285 286 284
168 162 147 135 138 147 164 197 129 52 316 302 298 294 288 286 290 294 292 292 290 291 293 289 284 285 292 294 291 287 285 281
157 155 144 140 136 143 173 115 100 256 271 275 276 279 285 283 288 288 289 286 290 295 292 284 282 279 285 290 291 290 289 285
160 149 144 137 131 159 184 186 237 269 268 268 267 264 268 276 285 291 286 286 295 293 287 285 280 274 279 283 286 285 281 273
141 154 174 173 157 178 243 202 205 270 275 276 261 276 269 269 278 284 282 286 290 283 280 278 278 281 282 273 270 270 271 268
166 167 172 166 188 221 241 182 281 261 276 276 270 271 286 272 280 278 276 281 285 286 291 298 300 295 296 303 297 287 279 283
159 154 167 154 229 259 251 201 236 276 284 283 293 291 290 292 294 291 297 303 301 303 305 301 304 308 311 315 309 306 304 291
170 148 141 186 258 241 251 206 234 237 277 287 290 286 290 296 298 301 312 312 309 312 317 315 317 322 318 316 322 323 321 316
139 180 177 233 259 248 248 229 251 257 272 271 273 279 288 289 293 296 299 308 314 321 322 328 327 324 330 334 340 323 325 309
145 239 219 244 263 240 238 227 243 264 259 251 269 273 285 292 290 290 297 300 300 310 323 320 322 336 340 339 326 318 315 315